Tracking 29606 objects as of 18-Sep-2024
HD Live streaming from Space Station
objects crossing your sky now

FENGYUN 1C DEB

Track FENGYUN 1C DEB now!
10-day predictions


NORAD ID: 37438
Int'l Code: 1999-025EHG
Perigee: 831.9 km
Apogee: 876.7 km
Inclination: 98.8 °
Period: 101.9 minutes
Semi major axis: 7225 km
RCS: 0.0099 m2 (small)
Launch date: May 10, 1999
Source: People's Republic of China (PRC)
Launch site: Taiyaun Space Center, China (TSC)

Note: This is SATELLITE DEBRIS
Your satellite tracking list
Your tracking list is empty




NASA's NSSDC Master Catalog

Two Line Element Set (TLE):
1 37438U 99025EHG 24253.37022913  .00004656  00000-0  24807-2 0  9997
2 37438  98.7917 294.6956 0031042  93.3202 267.1523 14.13575912536400
Source of the keplerian elements: AFSPC